Total_Precipitation_Accumulation
0.80 0.80 0.81 0.79 0.77 0.76 0.76 0.73 0.76 0.82 0.81 0.85 1.02 1.08 1.15 1.22 1.40 1.65 1.83 1.84 1.77 1.77 1.77 1.85 2.02 2.11 2.33 2.30 2.22 2.11 1.97 1.80 1.67 1.51 1.31 1.15 1.19 1.25 1.34 1.44 1.42 1.30 1.11
0.90 0.88 0.80 0.72 0.69 0.69 0.66 0.60 0.61 0.59 0.58 0.70 0.84 0.88 0.92 0.97 1.15 1.44 1.64 1.68 1.65 1.56 1.55 1.67 1.90 2.07 2.28 2.38 2.34 2.20 2.10 1.96 1.85 1.77 1.60 1.39 1.27 1.30 1.40 1.51 1.51 1.41 1.31
0.95 0.85 0.76 0.70 0.61 0.56 0.50 0.47 0.54 0.55 0.61 0.72 0.82 0.88 0.90 0.95 0.98 1.08 1.24 1.36 1.35 1.30 1.33 1.40 1.46 1.67 1.95 2.14 2.16 2.17 2.21 2.18 2.13 1.97 1.77 1.63 1.50 1.39 1.45 1.50 1.51 1.57 1.43
1.09 0.98 0.87 0.76 0.65 0.60 0.52 0.48 0.47 0.51 0.57 0.65 0.72 0.79 0.87 0.93 0.93 0.93 0.96 1.02 1.04 1.09 1.16 1.21 1.25 1.30 1.53 1.71 1.81 1.99 2.22 2.24 2.24 2.17 1.95 1.78 1.64 1.52 1.57 1.67 1.75 1.74 1.58
1.12 1.10 0.95 0.77 0.64 0.58 0.54 0.47 0.46 0.47 0.49 0.56 0.63 0.67 0.72 0.81 0.90 0.91 0.78 0.74 0.81 0.92 0.95 0.94 0.97 1.04 1.18 1.28 1.36 1.71 2.05 2.23 2.22 2.17 2.04 1.94 1.68 1.55 1.42 1.43 1.65 1.89 1.86
1.03 1.01 0.79 0.62 0.50 0.45 0.46 0.45 0.42 0.41 0.46 0.51 0.51 0.55 0.66 0.70 0.84 0.82 0.64 0.61 0.65 0.75 0.84 0.83 0.74 0.74 0.79 0.87 0.95 1.13 1.41 1.66 1.94 2.11 2.04 1.85 1.63 1.52 1.47 1.50 1.55 1.68 1.83
0.69 0.65 0.56 0.46 0.43 0.47 0.49 0.44 0.43 0.43 0.44 0.46 0.45 0.47 0.52 0.66 0.70 0.56 0.53 0.55 0.62 0.67 0.73 0.78 0.71 0.61 0.69 0.75 0.84 0.92 0.94 1.02 1.31 1.65 1.77 1.73 1.79 1.66 1.62 1.56 1.53 1.60 1.66
0.43 0.44 0.39 0.37 0.39 0.41 0.43 0.43 0.49 0.54 0.52 0.50 0.51 0.51 0.50 0.56 0.55 0.45 0.48 0.50 0.55 0.60 0.68 0.77 0.81 0.73 0.73 0.84 0.84 0.88 0.84 0.80 1.00 1.02 1.19 1.49 1.67 1.75 1.72 1.80 1.96 1.93 1.79
0.15 0.16 0.16 0.16 0.18 0.21 0.22 0.28 0.40 0.46 0.49 0.51 0.55 0.56 0.51 0.49 0.50 0.42 0.43 0.50 0.55 0.59 0.60 0.66 0.73 0.71 0.84 0.92 0.93 1.06 1.04 0.92 1.04 1.10 1.14 1.18 1.31 1.47 1.60 1.68 1.76 1.82 1.79
0.03 0.03 0.05 0.06 0.07 0.08 0.11 0.15 0.21 0.23 0.28 0.38 0.41 0.43 0.47 0.46 0.57 0.46 0.46 0.50 0.58 0.67 0.68 0.66 0.79 0.79 0.85 0.84 0.83 1.06 1.08 0.96 0.87 0.93 0.94 0.92 0.88 0.99 1.21 1.38 1.59 1.69 1.66
0.03 0.03 0.04 0.04 0.04 0.05 0.06 0.08 0.12 0.13 0.18 0.22 0.26 0.32 0.40 0.46 0.56 0.54 0.59 0.60 0.66 0.78 0.76 0.68 0.62 0.72 0.61 0.67 0.72 0.78 0.99 0.98 0.88 0.94 0.96 0.89 0.83 0.85 0.92 1.07 1.33 1.53 1.58
0.03 0.03 0.03 0.03 0.04 0.04 0.05 0.07 0.08 0.10 0.12 0.14 0.16 0.21 0.29 0.35 0.42 0.49 0.50 0.55 0.63 0.72 0.77 0.65 0.62 0.69 0.54 0.52 0.54 0.64 0.79 0.90 0.89 0.94 0.94 0.92 0.84 0.77 0.80 0.90 1.01 1.11 1.18
0.03 0.02 0.03 0.03 0.04 0.05 0.06 0.08 0.08 0.08 0.10 0.12 0.15 0.22 0.29 0.36 0.40 0.37 0.35 0.39 0.46 0.56 0.59 0.61 0.60 0.56 0.51 0.47 0.47 0.54 0.62 0.73 0.89 0.92 0.85 0.83 0.77 0.73 0.74 0.77 0.86 0.94 1.00
0.02 0.02 0.03 0.03 0.04 0.05 0.06 0.08 0.09 0.09 0.10 0.14 0.20 0.26 0.31 0.35 0.37 0.36 0.39 0.42 0.43 0.45 0.45 0.44 0.46 0.49 0.52 0.50 0.47 0.51 0.59 0.69 0.77 0.77 0.72 0.69 0.72 0.74 0.78 0.80 0.85 0.89 0.95
0.02 0.02 0.02 0.03 0.03 0.04 0.04 0.05 0.06 0.07 0.09 0.16 0.23 0.29 0.30 0.29 0.25 0.27 0.39 0.49 0.56 0.61 0.67 0.60 0.61 0.62 0.58 0.53 0.50 0.50 0.55 0.60 0.62 0.60 0.60 0.57 0.56 0.62 0.67 0.72 0.81 0.82 0.84
0.03 0.03 0.02 0.03 0.04 0.04 0.05 0.05 0.06 0.07 0.11 0.14 0.15 0.17 0.18 0.18 0.19 0.21 0.28 0.38 0.48 0.60 0.76 0.79 0.83 0.85 0.79 0.68 0.59 0.51 0.46 0.49 0.52 0.55 0.58 0.58 0.55 0.56 0.62 0.65 0.71 0.75 0.76
0.02 0.03 0.03 0.03 0.04 0.05 0.06 0.08 0.10 0.09 0.07 0.06 0.07 0.09 0.15 0.23 0.27 0.32 0.34 0.38 0.41 0.56 0.75 0.81 0.82 0.81 0.74 0.69 0.64 0.56 0.48 0.45 0.47 0.49 0.49 0.52 0.55 0.56 0.61 0.63 0.62 0.67 0.71
0.01 0.01 0.02 0.05 0.07 0.08 0.09 0.13 0.18 0.22 0.20 0.12 0.07 0.06 0.09 0.18 0.22 0.26 0.35 0.47 0.48 0.56 0.66 0.69 0.68 0.56 0.49 0.47 0.44 0.41 0.38 0.37 0.39 0.40 0.39 0.43 0.49 0.51 0.55 0.60 0.63 0.64 0.67
0.01 0.02 0.05 0.10 0.12 0.11 0.12 0.17 0.19 0.16 0.13 0.12 0.11 0.09 0.09 0.12 0.15 0.18 0.28 0.46 0.47 0.41 0.37 0.36 0.35 0.32 0.30 0.31 0.31 0.30 0.30 0.30 0.30 0.32 0.32 0.35 0.40 0.45 0.50 0.54 0.60 0.64 0.65
0.02 0.02 0.05 0.10 0.13 0.11 0.10 0.12 0.12 0.11 0.09 0.10 0.12 0.13 0.15 0.17 0.18 0.20 0.23 0.27 0.26 0.22 0.21 0.23 0.23 0.24 0.26 0.27 0.28 0.29 0.28 0.28 0.28 0.30 0.31 0.35 0.38 0.42 0.48 0.55 0.61 0.65 0.65
0.03 0.04 0.05 0.08 0.09 0.08 0.08 0.09 0.10 0.11 0.12 0.13 0.13 0.14 0.18 0.22 0.23 0.23 0.24 0.25 0.23 0.23 0.23 0.25 0.24 0.24 0.26 0.29 0.32 0.33 0.33 0.32 0.32 0.33 0.35 0.39 0.42 0.43 0.47 0.56 0.65 0.67 0.68
0.06 0.08 0.09 0.11 0.10 0.08 0.09 0.12 0.15 0.15 0.14 0.16 0.17 0.17 0.20 0.23 0.24 0.24 0.24 0.24 0.24 0.24 0.27 0.31 0.32 0.29 0.29 0.32 0.36 0.38 0.39 0.39 0.38 0.37 0.38 0.40 0.43 0.43 0.45 0.54 0.64 0.69 0.73
0.08 0.09 0.11 0.12 0.12 0.11 0.12 0.15 0.17 0.17 0.17 0.18 0.19 0.21 0.22 0.25 0.26 0.28 0.28 0.27 0.28 0.28 0.29 0.32 0.34 0.33 0.31 0.33 0.38 0.44 0.46 0.45 0.44 0.45 0.47 0.48 0.48 0.49 0.49 0.52 0.58 0.65 0.70
0.10 0.12 0.15 0.16 0.16 0.15 0.16 0.18 0.18 0.18 0.20 0.21 0.22 0.23 0.24 0.27 0.27 0.26 0.28 0.29 0.31 0.32 0.32 0.33 0.33 0.32 0.31 0.34 0.38 0.43 0.48 0.47 0.45 0.45 0.47 0.52 0.56 0.57 0.58 0.62 0.67 0.71 0.76
0.14 0.15 0.16 0.17 0.17 0.16 0.17 0.19 0.21 0.21 0.22 0.24 0.24 0.24 0.25 0.28 0.29 0.29 0.30 0.32 0.33 0.34 0.34 0.36 0.37 0.35 0.34 0.35 0.39 0.44 0.53 0.54 0.50 0.48 0.48 0.52 0.57 0.61 0.67 0.75 0.83 0.86 0.90
0.12 0.15 0.17 0.19 0.19 0.19 0.20 0.23 0.24 0.26 0.27 0.29 0.29 0.31 0.32 0.34 0.34 0.34 0.35 0.36 0.37 0.36 0.35 0.37 0.38 0.37 0.38 0.40 0.43 0.50 0.55 0.51 0.49 0.51 0.51 0.55 0.60 0.61 0.64 0.70 0.74 0.79 0.85